SCP
0 0 0 0 0 0 0 0 0 0 0 0 0 0 0 0 0 0 0 0 0 0 0 0 0 0 0 0 0 0 0 0 0 0 0 0 0 0 0 0 0 0 0
0 0 0 0 0 0 0 0 0 0 0 0 0 0 0 0 0 0 0 0 0 0 0 0 0 0 0 0 0 0 0 0 0 0 0 0 0 0 0 0 0 0 0
0 0 0 0 0 0 0 0 0 0 0 0 0 0 0 0 0 0 0 0 0 0 0 0 0 0 0 0 0 0 0 0 0 0 0 0 0 0 0 0 0 0 0
0 0 0 0 0 0 0 0 0 0 0 0 0 0 0 0 0 0 0 0 0 0 0 0 0 0 0 0 0 0 0 0 0 0 0 0 0 0 0 0 0 0 0
0 0 0 0 0 0 0 0 0 0 0 0 0 0 0 0 0 0 0 0 0 0 0 0 0 0 0 0 0 0 0 0 0 0 0 0 0 0 0 0 0 0 0
0 0 0 0 0 0 0 0 0 0 0 0 0 0 0 0 0 0 0 0 0 0 0 0 0 0 0 0 0 0 0 0 0 0 0 0 0 0 0 0 0 0 0
0 0 0 0 0 0 0 0 0 0 0 0 0 0 0 0 0 0 0 0 0 0 0 0 0 0 0 0 0 0 0 0 0 0 0 0 0 0 0 0 0 0 0
0 0 0 0 0 0 0 0 0 0 0 0 0 0 0 0 0 0 0 0 0 0 0 0 0 0 0 0 0 0 0 0 0 0 0 0 0 0 0 0 0 0 0
0 0 0 0 0 0 0 0 0 0 0 0 0 0 0 0 0 0 0 0 0 0 0 0 0 0 0 0 0 0 0 0 0 0 0 0 0 0 0 0 0 0 0
0 0 0 0 0 0 0 0 0 0 0 0 0 0 0 0 0 0 0 0 0 0 0 0 0 0 0 0 0 0 0 0 0 0 0 0 0 0 0 0 0 0 0
0 0 0 0 0 0 0 0 0 0 0 0 0 0 0 0 0 0 0 0 0 0 0 0 0 0 0 0 0 0 0 0 0 0 0 0 0 0 0 0 0 0 0
0 0 0 0 0 0 0 0 0 0 0 0 0 0 0 0 0 0 0 0 0 0 0 0 0 0 0 0 0 0 0 0 0 0 0 0 0 0 0 0 0 0 0
0 0 0 0 0 0 0 0 0 0 0 0 0 0 0 0 0 0 0 0 0 0 0 0 0 0 0 0 0 0 0 0 0 0 0 0 0 0 0 0 0 0 0
0 0 0 0 0 0 0 0 0 0 0 0 0 0 0 0 0 0 0 0 0 0 0 0 0 0 0 0 0 0 0 0 0 0 0 0 0 0 0 0 0 0 0
0 0 0 0 0 0 0 0 0 0 0 0 0 0 0 0 0 0 0 0 0 0 0 0 0 0 0 0 0 0 0 0 0 0 0 0 0 0 0 0 0 0 0
0 0 0 0 0 0 0 0 0 0 0 0 0 0 0 0 0 0 0 0 0 0 0 0 0 0 0 0 0 0 0 0 0 0 0 0 0 0 0 0 0 0 0
0 0 0 0 0 0 0 0 0 0 0 0 0 0 0 0 0 0 0 0 0 0 0 0 0 0 0 0 0 0 0 0 0 0 0 0 0 0 0 0 0 0 0
0 0 0 0 0 0 0 0 0 0 0 0 0 0 0 0 0 0 0 0 0 0 0 0 0 0 0 0 0 0 0 0 0 0 0 0 0 0 0 0 0 0 0
0 0 0 0 0 0 0 0 0 0 0 0 0 0 0 0 0 0 0 0 0 0 0 0 0 0 0 0 0 0 0 0 0 0 0 0 0 0 0 0 0 0 0
0 0 0 0 0 0 0 0 0 0 0 0 0 0 0 0 0 0 0 0 0 0 0 0 0 0 0 0 0 0 0 0 0 0 0 0 0 0 0 0 0 0 0
0 0 0 0 0 0 0 0 0 0 0 0 0 0 0 0 0 0 0 0 0 0 0 0 0 0 0 0 0 0 0 0 0 0 0 0 0 0 0 0 0 0 0
0 0 0 0 0 0 0 0 0 0 0 0 0 0 0 0 0 0 0 0 0 0 0 0 0 0 0 0 0 0 0 0 0 0 0 0 0 0 0 0 0 0 0
0 0 0 0 0 0 0 0 0 0 0 0 0 0 0 0 0 0 0 0 0 0 0 0 0 0 0 0 0 0 0 0 0 0 0 0 0 0 0 0 0 0 0
0 0 0 0 0 0 0 0 0 0 0 0 0 0 0 0 0 0 0 0 0 0 0 0 0 0 0 0 0 0 0 0 0 0 0 0 0 0 0 0 0 0 0
0 0 0 0 0 0 0 0 0 0 0 0 0 0 0 0 0 0 0 0 0 0 0 0 0 0 0 0 0 0 0 0 0 0 0 0 0 0 0 0 0 0 0
0 0 0 0 0 0 0 0 0 0 0 0 0 0 0 0 0 0 0 0 0 0 0 0 0 0 0 0 0 0 0 0 0 0 0 0 0 0 0 0 0 0 0
Wind_Speed
1 1 5 7 8 9 10 11 11 11 11 10 11 11 11 12 11 11 11 11 12 12 11 11 10 10 10 10 9 9 9 9 9 9 9 9 8 8 8 8 8 5 8
1 1 6 7 8 9 10 11 11 11 11 10 11 11 12 12 12 11 11 11 12 12 11 11 11 11 11 10 9 9 9 9 9 9 9 8 9 9 9 8 7 5 7
3 2 4 7 8 9 10 11 11 11 11 12 12 13 12 12 12 12 12 12 12 11 11 11 11 12 11 11 10 9 10 10 10 10 8 4 5 8 8 8 8 7 7
4 3 4 7 9 10 10 11 11 12 13 14 13 13 13 13 12 12 12 12 12 12 11 11 11 11 11 10 10 9 10 10 10 10 5 4 4 8 8 8 8 7 7
4 3 4 8 9 10 10 11 11 12 12 13 13 13 13 13 13 13 12 12 12 12 12 11 11 11 10 10 10 10 11 11 11 9 5 4 3 7 7 7 7 7 7
4 3 4 8 9 10 11 11 11 12 12 12 12 12 13 13 13 13 13 12 12 12 12 12 11 11 10 10 11 11 11 11 9 6 5 4 3 7 8 7 7 6 6
4 3 4 9 9 10 10 11 11 12 12 12 12 12 12 12 12 12 12 12 12 12 12 11 11 11 10 10 11 11 12 12 7 5 4 3 4 8 8 7 7 6 6
5 4 4 8 9 9 10 10 11 11 11 11 11 11 11 11 11 11 12 12 11 11 11 10 10 11 11 11 11 11 11 10 7 6 4 3 6 8 8 8 7 7 6
5 5 3 3 5 8 9 10 10 10 10 10 10 10 10 10 10 11 11 11 10 10 10 10 10 10 10 11 10 11 11 10 6 4 4 3 8 9 9 9 8 7 7
4 4 4 3 3 3 4 7 8 9 9 9 9 9 9 9 9 9 9 9 10 10 10 10 10 10 10 11 11 11 11 9 5 4 2 4 8 9 9 9 8 8 8
4 3 4 3 2 2 2 4 5 6 6 7 6 8 7 4 4 4 6 8 9 9 9 9 9 10 10 10 11 11 9 4 4 3 2 7 9 9 9 8 8 8 8
4 3 3 3 2 2 2 2 2 3 3 3 3 3 3 3 3 4 6 8 8 8 8 9 9 9 7 4 7 8 4 4 4 3 4 8 9 9 9 9 9 8 8
4 4 3 3 2 2 2 2 1 2 2 2 3 3 3 3 3 3 3 4 4 6 4 6 6 4 4 3 3 4 4 4 3 3 5 9 9 9 9 9 9 8 8
4 4 3 3 3 2 2 2 1 1 2 1 2 3 3 2 2 2 2 2 2 2 3 3 3 4 5 5 5 5 5 3 3 2 4 9 9 9 9 8 8 8 7
4 3 3 4 3 2 2 1 2 1 2 1 2 2 3 3 2 2 2 2 3 3 3 3 4 5 5 5 5 5 5 4 4 3 3 8 9 9 9 9 9 8 8
4 3 3 4 3 3 2 2 1 1 1 2 2 2 3 3 3 3 3 3 3 3 3 3 4 4 4 4 5 5 4 4 4 4 3 5 8 9 9 8 8 8 8
4 4 4 4 3 3 3 2 2 1 2 2 2 2 3 3 3 3 3 3 2 3 4 4 4 4 4 5 4 4 4 4 4 4 4 3 4 7 9 9 8 8 8
4 4 4 4 4 3 3 2 2 1 2 2 2 2 3 3 4 3 3 2 2 3 3 3 3 4 4 4 3 3 3 3 4 3 4 3 3 3 6 9 8 8 8
5 5 4 4 4 3 3 2 2 2 2 2 2 2 2 3 4 4 3 2 3 3 3 3 3 3 3 3 3 3 3 3 3 3 4 4 3 3 3 6 8 9 8
5 5 5 4 3 3 3 3 3 3 2 2 2 2 3 2 3 4 3 3 3 3 3 3 4 3 3 2 4 4 3 3 3 3 3 3 3 3 3 4 4 5 8
5 5 4 4 2 3 2 2 2 1 1 2 1 2 3 3 3 3 3 3 3 3 2 3 3 4 2 2 3 3 4 4 4 3 3 3 3 3 3 3 3 3 3
4 4 4 4 3 3 2 2 2 1 1 1 1 2 2 2 2 3 3 3 3 3 3 2 3 2 1 1 2 3 2 4 4 4 3 3 3 3 3 3 3 3 3
5 4 4 4 4 3 3 3 3 3 3 3 2 2 1 1 2 2 2 3 2 2 2 2 2 3 1 1 1 3 3 1 1 3 4 3 3 3 3 2 3 3 3
5 5 5 4 4 3 4 4 3 2 1 0 0 0 1 1 2 2 2 2 2 2 2 2 2 2 3 1 1 1 2 3 2 1 3 3 3 3 3 3 3 3 3
5 5 4 4 4 3 4 4 4 2 1 0 1 1 2 2 1 1 2 2 2 2 2 2 2 2 2 2 1 1 2 2 2 3 0 2 3 3 2 2 2 2 2
4 4 4 4 3 3 3 4 4 4 2 2 2 1 1 1 1 1 1 1 1 1 2 2 2 2 2 2 2 2 2 2 1 2 2 0 1 2 3 2 2 2 2
Wind_Direction
334 346 68 61 59 57 57 60 62 63 66 71 79 82 86 89 90 90 93 95 95 93 92 91 91 92 92 92 93 93 95 99 99 91 91 95 97 98 100 100 96 88 94
152 66 75 69 66 65 65 65 64 64 66 71 82 84 85 88 89 88 92 94 95 94 92 90 89 88 89 90 90 90 91 90 93 93 91 93 98 101 104 107 104 97 97
107 83 81 76 74 72 70 68 67 67 65 75 86 86 86 85 86 86 90 92 94 93 93 90 88 86 83 81 83 83 86 88 90 92 90 84 95 98 100 100 101 96 98
113 92 92 84 81 78 74 71 69 69 70 76 84 87 87 86 86 85 87 90 91 91 91 91 89 87 83 79 79 83 87 88 87 86 78 72 78 94 95 98 99 95 96
106 91 103 92 86 82 79 76 73 74 75 80 84 86 87 86 86 85 85 88 89 90 90 91 89 87 84 78 78 81 83 83 82 79 73 67 66 89 92 93 95 95 95
105 99 108 99 91 86 83 80 79 78 79 83 86 86 84 85 85 85 86 88 89 89 89 90 88 86 83 80 81 82 82 81 78 74 69 64 64 84 84 86 89 91 92
112 110 114 103 97 91 87 84 83 81 80 82 85 86 85 87 86 85 87 88 90 90 88 86 86 84 83 82 81 80 81 82 77 72 68 67 74 84 82 85 83 83 84
123 115 109 106 102 97 92 88 85 81 80 82 83 85 86 89 89 86 86 86 88 88 88 87 84 81 80 81 81 80 81 78 75 74 67 68 79 81 82 81 79 80 79
115 110 98 96 98 99 97 94 90 85 82 81 83 83 84 86 89 90 88 86 88 89 88 85 82 83 81 79 79 81 80 76 65 63 76 70 79 79 81 80 77 75 74
109 109 108 87 81 82 92 98 94 90 85 81 81 82 81 82 86 91 90 89 86 85 83 80 77 78 78 76 79 79 75 70 61 57 56 75 78 79 80 77 74 73 70
104 108 114 109 102 96 92 93 88 85 79 76 75 79 72 55 57 74 88 93 91 86 83 80 78 77 74 72 76 75 69 59 61 58 58 76 79 78 77 77 76 74 69
116 120 113 121 125 109 102 78 61 66 58 54 57 62 56 56 60 70 76 83 81 78 76 74 75 73 69 63 71 71 59 54 57 58 70 78 77 74 75 76 77 74 66
138 131 131 132 120 102 90 85 63 63 60 54 60 63 67 61 59 57 54 57 58 65 61 60 60 56 63 74 77 71 65 58 49 47 57 71 76 74 72 72 70 66 62
129 130 136 130 111 96 92 92 84 83 73 65 61 75 79 73 64 64 61 56 56 62 66 60 64 62 65 72 77 73 68 65 54 45 54 65 70 71 70 68 66 64 60
119 126 133 125 113 103 99 103 91 83 87 82 65 76 91 89 79 73 69 69 70 72 77 76 73 71 71 71 75 79 72 67 63 53 47 61 65 63 64 62 63 60 59
117 123 112 115 122 114 103 98 96 94 90 77 69 75 93 96 94 92 84 81 74 77 77 81 78 76 72 72 68 68 68 62 60 53 42 45 55 56 53 56 57 56 58
127 115 108 109 100 104 105 106 99 93 86 79 77 87 89 92 98 95 91 87 82 84 81 78 72 70 72 71 64 61 59 55 58 54 47 39 35 45 47 50 51 52 54
124 116 116 108 99 96 95 100 93 81 78 74 74 80 88 94 96 89 87 86 91 87 83 86 78 74 65 64 61 54 52 53 52 53 53 45 37 32 34 42 47 47 49
130 127 117 108 103 98 97 88 79 73 68 63 68 76 83 92 96 96 94 87 90 84 79 89 79 87 84 71 67 58 47 49 47 59 56 47 43 39 28 34 41 44 48
133 129 126 117 112 106 91 72 57 51 48 53 65 75 80 86 96 99 96 88 87 85 77 84 87 76 86 85 76 57 40 36 43 48 48 42 37 39 34 33 27 31 39
133 128 130 119 116 107 87 80 78 57 39 49 60 76 82 87 96 104 99 97 94 99 108 108 100 86 74 85 78 47 28 29 41 36 32 38 31 27 31 32 31 25 23
145 139 135 132 126 117 118 125 126 128 91 78 54 47 62 82 94 111 114 117 109 104 95 100 111 104 78 67 108 92 34 8 11 18 23 37 25 20 29 34 30 27 24
153 154 144 140 133 123 117 99 76 59 42 37 34 21 28 73 84 101 116 124 125 122 128 130 131 129 136 7 90 132 133 182 332 350 7 19 16 20 14 15 24 20 24
173 165 149 144 136 128 121 115 117 114 115 196 259 351 356 30 75 97 110 116 130 131 136 147 138 141 134 132 16 56 129 150 140 358 342 353 12 23 11 18 20 20 15
165 161 155 145 138 137 131 133 131 118 130 84 42 45 21 2 25 92 114 113 123 138 148 141 132 132 134 142 142 109 75 70 99 131 236 332 352 354 359 2 12 10 6
147 142 145 143 146 146 140 138 139 137 125 95 60 38 6 348 343 6 110 111 133 149 160 156 148 139 135 125 120 119 133 133 147 135 153 239 325 325 350 5 16 7 1